ホームズ彗星

17P/Holmes (2000)

English version
Home page
Updated on May 19, 2007

---------------------------------------------------------------------

・ プロフィール

・ 軌道要素

Epoch 2000 May 16.0 TT = JDT 2451680.5
T 2000 May 11.82328 TT                                  Muraoka
q   2.1654916            (2000.0)            P               Q
n   0.13944802     Peri.   23.34830     +0.97698355     +0.12323259
a   3.6829386      Node   328.01009     -0.20680061     +0.74734660
e   0.4120207      Incl.   19.18783     +0.05231303     +0.65290641
P   7.07
>From 71 observations 1964-1993, mean residual 0".84.  Nongravitational
   parameters A1 = +0.12 +/- 0.04, A2 = +0.0305 +/- 0.0011

・ 星図

・ 光度変化

        m1 = 1.5 + 5 logΔ + 35   log r  [   ,160]  (              〜2000年10月18日)
        m1 = 9.3 + 5 logΔ + 15.0 log r  [160,   ]  (2000年10月18日〜              )

---------------------------------------------------------------------

軌道要素は村岡健治氏の計算によるものです。
星図は StellaNavigator Ver.2.0 for Windows (アストロアーツ 編著 / アスキー出版局刊) で作成したものです。
光度グラフはComet for Windowsで作成したものです。

---------------------------------------------------------------------

Copyright(C) Seiichi Yoshida (comet@aerith.net). All rights reserved.